[[{"header":{"parameterUnit":"m.s-1","parameterCategory":2,"la1":30.2992,"la2":30.254,"lo1":-89.0895,"lo2":-89.0443,"dy":0.0025,"dx":0.0025,"nx":19,"ny":19,"refTime":"2026-05-10T21:00:00:Z","depth":"0","parameterNumber":2,"parameterNumberName":"U-component_of_CURRENTS"},"data":[0,0,0,0.0952,0.0953,0.1011,0.1012,0.1057,0.1057,0,0,0,0,0,0,0,0,0,0,0,0.0925,0.0925,0.0952,0.0953,0.1011,0.1012,0.1057,0.1057,0,0,0,0,0,0,0,0,0,0,0,0.0925,0.0925,0.0925,0.0954,0.1011,0.1012,0.1056,0.1022,0,0,0,0,0,0,0,0,0,0,0.0971,0.0938,0.0925,0.0925,0.0954,0.1011,0.1012,0.1021,0.1024,0.1019,0,0.1017,0,0.1036,0.1058,0.1058,0,0,0,0.0963,0.0935,0.0958,0.0925,0.0954,0.1011,0.0988,0.1023,0.1027,0.1023,0.1018,0.1021,0.1037,0.1058,0.1059,0.1023,0.1022,0,0,0.0959,0.0932,0.0955,0.096,0.0955,0.0986,0.0989,0.1026,0.1018,0.1019,0.1022,0.1038,0.1059,0.1059,0.1023,0.1022,0,0,0,0.0944,0.0929,0.0952,0.0958,0.097,0.0987,0.0991,0.1017,0.1026,0.1023,0.1038,0.1059,0.1059,0.1024,0.1023,0.096,0,0,0,0.0943,0.092,0.095,0.0934,0.0969,0.0996,0.0981,0.1023,0.1028,0.1038,0.1059,0.1059,0.1024,0.1023,0.0963,0.092,0,0,0,0.0925,0.0918,0.0922,0.0932,0.0955,0.0996,0.1008,0.1025,0.1037,0.1058,0.1059,0.1025,0.1023,0.0966,0.0925,0.0874,0,0,0,0.09,0.0888,0.0921,0.0913,0.0955,0.0968,0.1008,0.1016,0.1027,0.1059,0.1024,0.1023,0.0967,0.0928,0.0878,0.083,0.0811,0,0,0.0872,0.0883,0.0881,0.0913,0.0912,0.0962,0.0946,0.0977,0.1005,0.1014,0.1013,0.0962,0.0926,0.0875,0.0753,0.0736,0,0,0,0.0865,0.0859,0.0865,0.0874,0.0899,0.0901,0.0938,0.0944,0.0947,0.1006,0.0952,0.0931,0.0901,0.0879,0.0865,0.0877,0.1017,0.1017,0.1017,0.0778,0.081,0.0799,0.083,0.0835,0.0854,0.0847,0.0858,0.09,0.0881,0.0873,0.078,0.0756,0.0745,0.0758,0.0874,0.0874,0.0874,0.0873,0.0725,0.0726,0.075,0.0752,0.0763,0.0752,0.0759,0.0772,0.0743,0.0798,0.0773,0.0806,0.0726,0.0745,0.0869,0.087,0.0871,0.0871,0.0871,0.0673,0.068,0.0685,0.0693,0.0675,0.0691,0.0652,0.066,0.0673,0.0645,0.063,0.0631,0.0653,0.0638,0.0637,0.0637,0.0636,0.0636,0.0636,0.0622,0.0633,0.063,0.0637,0.0635,0.0614,0.0586,0.0556,0.0523,0.0539,0.0539,0.0611,0.0708,0.0724,0.0629,0.063,0.0631,0.0632,0.0632,0.0583,0.0595,0.0593,0.0593,0.0586,0.0563,0.0523,0.0429,0.0387,0.0353,0.0432,0.0486,0.0498,0.051,0.052,0.0378,0.0378,0.0378,0.0378,0.0555,0.0563,0.0569,0.0572,0.0558,0.0541,0.0443,0.0357,0.031,0.0312,0.0334,0.0386,0.0396,0.0407,0.0421,0.0432,0.0271,0.0271,0.0271,0.0533,0.0543,0.0545,0.0564,0.0557,0.052,0.0437,0.032,0.0264,0.0271,0.0355,0.0359,0.0446,0.0461,0.0492,0.0511,0.0535,0,0]},{"header":{"parameterUnit":"m.s-1","parameterCategory":2,"la1":30.2992,"la2":30.254,"lo1":-89.0895,"lo2":-89.0443,"dy":0.0025,"dx":0.0025,"nx":19,"ny":19,"refTime":"2026-05-10T21:00:00:Z","depth":"0","parameterNumber":3,"parameterNumberName":"V-component_of_CURRENTS"},"data":[0,0,0,0.0015,0.0015,-0.0011,-0.0011,-0.0006,-0.0006,0,0,0,0,0,0,0,0,0,0,0,0.0025,0.0024,0.0015,0.0015,-0.0011,-0.0011,-0.0006,-0.0006,0,0,0,0,0,0,0,0,0,0,0,0.0025,0.0024,0.0024,0.0014,-0.0011,-0.0011,-0.0006,0.0005,0,0,0,0,0,0,0,0,0,0,0.0026,0.0032,0.0024,0.0024,0.0014,-0.0011,-0.0011,0.0005,0.0004,0.0015,0,0.0007,0,-0.0001,-0.0005,-0.0005,0,0,0,0.0019,0.0033,0.002,0.0024,0.0014,-0.0011,0.0002,0.0004,0.0003,0.0015,0.0007,0.0006,-0.0001,-0.0005,-0.0005,0.0003,0.0003,0,0,0.002,0.0028,0.002,0.0019,0.0002,0.0002,0.0001,0.0003,0.0005,0.0007,0.0006,-0.0001,-0.0005,-0.0005,0.0003,0.0003,0,0,0,0.0021,0.0029,0.0015,0.0019,0.0011,0.0001,-0.0,0.0005,-0.0002,0.0006,-0.0,-0.0005,-0.0005,0.0003,0.0003,-0.0011,0,0,0,0.0022,0.0029,0.0016,0.0021,0.001,0.0003,0.0001,-0.0002,-0.0002,-0.0,-0.0005,-0.0005,0.0003,0.0003,-0.0011,-0.0016,0,0,0,0.0027,0.003,0.0023,0.0021,0.0007,0.0003,-0.0003,-0.0002,-0.0006,-0.0005,-0.0004,0.0003,0.0003,-0.001,-0.0015,-0.0002,0,0,0,0.004,0.0024,0.0023,0.0002,0.0007,-0.0014,-0.0004,-0.0012,-0.0012,-0.0005,0.0003,0.0003,-0.001,-0.0015,-0.0002,0.0013,0.0014,0,0,0.0026,0.0023,0.0008,0.0006,-0.0018,-0.001,-0.0022,-0.0016,-0.0007,0.0006,0.0006,-0.0011,-0.0015,-0.0002,0.0012,0.0013,0,0,0,0.0007,-0.0006,-0.0013,-0.0029,-0.0037,-0.0035,-0.0031,-0.0024,-0.0015,-0.0009,-0.0007,-0.0009,-0.0,0.0009,0.0009,0.0078,0.0003,0.0003,0.0003,-0.0004,-0.0017,-0.004,-0.0055,-0.0059,-0.0051,-0.0046,-0.0033,-0.0024,-0.002,-0.0018,-0.0015,-0.0005,-0.0005,0.0065,-0.0016,-0.0016,-0.0016,-0.0016,-0.0038,-0.0057,-0.0062,-0.009,-0.008,-0.0084,-0.0061,-0.005,-0.0029,-0.0027,-0.0017,-0.0004,-0.0005,0.007,-0.0017,-0.0016,-0.0016,-0.0016,-0.0016,-0.0051,-0.006,-0.008,-0.011,-0.0117,-0.0108,-0.0114,-0.0082,-0.0043,-0.0033,-0.0006,-0.0006,0.0059,-0.0024,-0.0023,-0.0023,-0.0023,-0.0023,-0.0023,-0.0054,-0.0073,-0.0108,-0.0135,-0.0153,-0.0166,-0.0144,-0.0122,-0.0054,-0.0017,-0.0017,0.0071,-0.0016,-0.0017,-0.0023,-0.0023,-0.0023,-0.0023,-0.0023,-0.0079,-0.0086,-0.0136,-0.0163,-0.0217,-0.0252,-0.0223,-0.0161,-0.0103,-0.0058,0.0093,-0.0001,0.0009,0.0009,0.0009,0.0011,0.0011,0.0011,0.0011,-0.009,-0.01,-0.0171,-0.0224,-0.0274,-0.0295,-0.0315,-0.0221,-0.0011,0.0109,0.0146,0.0157,0.0152,0.0172,0.0168,0.0172,0.0215,0.0215,0.0216,-0.0113,-0.0125,-0.0183,-0.0244,-0.0305,-0.0352,-0.0381,-0.0269,0.0078,0.0231,0.024,0.0232,0.0254,0.0241,0.0275,0.0264,0.0272,0,0]}],[{"header":{"parameterUnit":"m.s-1","parameterCategory":2,"la1":30.2992,"la2":30.254,"lo1":-89.0895,"lo2":-89.0443,"dy":0.0025,"dx":0.0025,"nx":19,"ny":19,"refTime":"2026-05-10T21:00:00:Z","depth":"2","parameterNumber":2,"parameterNumberName":"U-component_of_CURRENTS"},"data":[0,0,0,-0.0525,-0.0524,-0.0495,-0.0495,-0.0486,-0.0486,0,0,0,0,0,0,0,0,0,0,0,-0.0524,-0.0524,-0.0525,-0.0524,-0.0495,-0.0495,-0.0486,-0.0486,0,0,0,0,0,0,0,0,0,0,0,-0.0524,-0.0524,-0.0523,-0.0524,-0.0495,-0.0495,-0.0486,-0.0501,0,0,0,0,0,0,0,0,0,0,-0.0526,-0.0529,-0.0524,-0.0523,-0.0524,-0.0495,-0.0495,-0.0502,-0.05,-0.0507,0,-0.049,0,-0.0492,-0.0486,-0.0486,0,0,0,-0.0526,-0.053,-0.0515,-0.0523,-0.0524,-0.0495,-0.0508,-0.0501,-0.0499,-0.0505,-0.049,-0.049,-0.0492,-0.0486,-0.0486,-0.0491,-0.0491,0,0,-0.0527,-0.0529,-0.0516,-0.0514,-0.0501,-0.0509,-0.0508,-0.0499,-0.0496,-0.049,-0.049,-0.0492,-0.0486,-0.0486,-0.0491,-0.0491,0,0,0,-0.0531,-0.053,-0.0515,-0.0514,-0.0509,-0.0508,-0.0506,-0.0497,-0.0489,-0.049,-0.0492,-0.0486,-0.0486,-0.0491,-0.0491,-0.0499,0,0,0,-0.0532,-0.0533,-0.0516,-0.0519,-0.0509,-0.0501,-0.0504,-0.0489,-0.0489,-0.0492,-0.0486,-0.0486,-0.0491,-0.0491,-0.0499,-0.0514,0,0,0,-0.0528,-0.0533,-0.0523,-0.0518,-0.0505,-0.0501,-0.0493,-0.0489,-0.049,-0.0486,-0.0486,-0.0491,-0.0491,-0.0499,-0.0513,-0.0516,0,0,0,-0.0542,-0.054,-0.0522,-0.053,-0.0505,-0.0517,-0.0493,-0.0493,-0.049,-0.0486,-0.0491,-0.0491,-0.0498,-0.0512,-0.0515,-0.0543,-0.0548,0,0,-0.0553,-0.0541,-0.055,-0.0534,-0.0554,-0.0522,-0.0541,-0.0515,-0.0495,-0.0496,-0.0495,-0.0499,-0.0513,-0.0516,-0.0552,-0.0557,0,0,0,-0.0565,-0.0565,-0.0571,-0.0573,-0.0573,-0.0566,-0.0544,-0.0529,-0.0503,-0.0492,-0.05,-0.0509,-0.051,-0.0526,-0.0529,-0.0492,-0.0492,-0.0492,-0.0492,-0.058,-0.0587,-0.0606,-0.0608,-0.061,-0.0594,-0.0583,-0.0555,-0.0532,-0.0513,-0.0516,-0.0526,-0.0542,-0.0545,-0.0509,-0.051,-0.051,-0.051,-0.051,-0.0607,-0.0622,-0.0625,-0.0639,-0.063,-0.0629,-0.0608,-0.0578,-0.0554,-0.0531,-0.0531,-0.0534,-0.055,-0.051,-0.051,-0.051,-0.051,-0.051,-0.051,-0.0617,-0.0629,-0.0626,-0.0644,-0.0645,-0.0633,-0.0638,-0.0604,-0.0565,-0.0561,-0.0564,-0.0564,-0.0534,-0.0548,-0.0548,-0.0548,-0.0548,-0.0548,-0.0549,-0.063,-0.0636,-0.0644,-0.0654,-0.0657,-0.0658,-0.0645,-0.064,-0.0612,-0.0586,-0.0585,-0.0539,-0.0538,-0.0536,-0.055,-0.055,-0.0549,-0.0549,-0.0549,-0.0664,-0.0651,-0.0671,-0.0675,-0.0695,-0.0712,-0.0704,-0.0696,-0.0675,-0.0666,-0.06,-0.0599,-0.06,-0.0597,-0.0598,-0.0626,-0.0626,-0.0626,-0.0626,-0.0682,-0.0681,-0.0704,-0.0721,-0.0747,-0.0744,-0.0758,-0.0724,-0.0675,-0.0632,-0.0632,-0.0625,-0.0622,-0.0624,-0.0621,-0.0621,-0.0656,-0.0655,-0.0655,-0.0713,-0.0714,-0.0733,-0.0742,-0.0771,-0.078,-0.0772,-0.0585,-0.0465,-0.0654,-0.0609,-0.0634,-0.0622,-0.0618,-0.0619,-0.0615,-0.0614,0,0]},{"header":{"parameterUnit":"m.s-1","parameterCategory":2,"la1":30.2992,"la2":30.254,"lo1":-89.0895,"lo2":-89.0443,"dy":0.0025,"dx":0.0025,"nx":19,"ny":19,"refTime":"2026-05-10T21:00:00:Z","depth":"2","parameterNumber":3,"parameterNumberName":"V-component_of_CURRENTS"},"data":[0,0,0,-0.0548,-0.0548,-0.0534,-0.0534,-0.0478,-0.0477,0,0,0,0,0,0,0,0,0,0,0,-0.0548,-0.0548,-0.0548,-0.0548,-0.0534,-0.0534,-0.0478,-0.0477,0,0,0,0,0,0,0,0,0,0,0,-0.0548,-0.0548,-0.0548,-0.0548,-0.0534,-0.0534,-0.0478,-0.0495,0,0,0,0,0,0,0,0,0,0,-0.0512,-0.0525,-0.0548,-0.0548,-0.0548,-0.0534,-0.0534,-0.0496,-0.0494,-0.0477,0,-0.048,0,-0.0484,-0.0474,-0.0473,0,0,0,-0.0536,-0.0527,-0.0523,-0.0548,-0.0548,-0.0535,-0.0537,-0.0495,-0.0493,-0.0474,-0.0479,-0.0478,-0.0483,-0.0473,-0.0473,-0.0428,-0.0427,0,0,-0.0537,-0.0542,-0.0525,-0.0522,-0.0551,-0.0538,-0.0537,-0.0494,-0.0493,-0.0479,-0.0477,-0.0482,-0.0473,-0.0473,-0.0428,-0.0428,0,0,0,-0.0548,-0.0543,-0.0541,-0.0524,-0.0528,-0.0538,-0.0537,-0.0495,-0.0494,-0.0476,-0.0481,-0.0473,-0.0472,-0.0428,-0.0428,-0.0427,0,0,0,-0.0547,-0.055,-0.0541,-0.0544,-0.053,-0.0518,-0.0538,-0.0497,-0.0493,-0.0482,-0.0473,-0.0471,-0.0428,-0.0428,-0.0427,-0.0417,0,0,0,-0.0548,-0.055,-0.055,-0.0544,-0.0544,-0.0519,-0.0516,-0.0496,-0.0496,-0.0473,-0.0471,-0.0428,-0.0428,-0.0427,-0.0418,-0.0399,0,0,0,-0.0549,-0.0543,-0.055,-0.0543,-0.0544,-0.0528,-0.0516,-0.0499,-0.0481,-0.0472,-0.0428,-0.0428,-0.0427,-0.0418,-0.0399,-0.036,-0.0353,0,0,-0.0539,-0.0542,-0.0536,-0.0542,-0.0526,-0.0529,-0.0507,-0.048,-0.047,-0.0437,-0.0436,-0.0427,-0.0418,-0.0399,-0.0346,-0.034,0,0,0,-0.053,-0.0525,-0.0522,-0.0517,-0.0512,-0.0501,-0.0486,-0.0475,-0.0447,-0.0461,-0.0422,-0.0416,-0.0404,-0.0382,-0.0377,-0.0426,-0.0427,-0.0427,-0.0427,-0.053,-0.0519,-0.0505,-0.0493,-0.0485,-0.0476,-0.0462,-0.0443,-0.0439,-0.0429,-0.0413,-0.0392,-0.0369,-0.0365,-0.0414,-0.0414,-0.0414,-0.0414,-0.0414,-0.0517,-0.0506,-0.0493,-0.0475,-0.0466,-0.0451,-0.0429,-0.0425,-0.0395,-0.0403,-0.0392,-0.0378,-0.0359,-0.0414,-0.0414,-0.0414,-0.0414,-0.0414,-0.0414,-0.0523,-0.051,-0.0503,-0.048,-0.0457,-0.0443,-0.0413,-0.0402,-0.0385,-0.0374,-0.0341,-0.0341,-0.0385,-0.0369,-0.0369,-0.0369,-0.0369,-0.0369,-0.0369,-0.0531,-0.0516,-0.0509,-0.0484,-0.0474,-0.0448,-0.0408,-0.0383,-0.0342,-0.0326,-0.0326,-0.0377,-0.0378,-0.0381,-0.0367,-0.0367,-0.0367,-0.0368,-0.0368,-0.051,-0.0522,-0.0514,-0.0509,-0.0478,-0.0445,-0.0409,-0.0332,-0.0304,-0.0273,-0.0294,-0.0296,-0.0288,-0.0291,-0.0292,-0.0254,-0.0254,-0.0254,-0.0254,-0.0506,-0.0508,-0.0504,-0.05,-0.0481,-0.044,-0.0359,-0.0265,-0.0216,-0.0164,-0.0168,-0.0173,-0.018,-0.0166,-0.0172,-0.0171,-0.0102,-0.0102,-0.0101,-0.0487,-0.0498,-0.049,-0.0493,-0.0475,-0.0425,-0.0326,-0.0168,-0.0041,-0.0095,-0.0142,-0.0244,-0.0263,-0.0269,-0.0259,-0.0264,-0.0267,0,0]}],[{"header":{"parameterUnit":"m.s-1","parameterCategory":2,"la1":30.2992,"la2":30.254,"lo1":-89.0895,"lo2":-89.0443,"dy":0.0025,"dx":0.0025,"nx":19,"ny":19,"refTime":"2026-05-10T21:00:00:Z","depth":"4","parameterNumber":2,"parameterNumberName":"U-component_of_CURRENTS"},"data":[0,0,0,-0.0426,-0.0428,-0.0563,-0.0564,-0.0824,-0.0826,0,0,0,0,0,0,0,0,0,0,0,-0.0419,-0.042,-0.0426,-0.0428,-0.0563,-0.0564,-0.0823,-0.0826,0,0,0,0,0,0,0,0,0,0,0,-0.0419,-0.042,-0.0421,-0.0428,-0.0562,-0.0564,-0.0823,-0.0711,0,0,0,0,0,0,0,0,0,0,-0.0574,-0.0522,-0.0419,-0.0421,-0.0428,-0.0562,-0.0564,-0.0705,-0.0718,-0.0772,0,-0.079,0,-0.0777,-0.0841,-0.0841,0,0,0,-0.0477,-0.0511,-0.0547,-0.0421,-0.0429,-0.0562,-0.0516,-0.0712,-0.0727,-0.0789,-0.0794,-0.0802,-0.0782,-0.0842,-0.0843,-0.112,-0.1121,0,0,-0.0469,-0.0449,-0.0537,-0.0556,-0.0463,-0.0511,-0.0519,-0.0721,-0.0737,-0.0794,-0.0807,-0.0786,-0.0844,-0.0845,-0.1118,-0.112,0,0,0,-0.0415,-0.0444,-0.0475,-0.0547,-0.0544,-0.0514,-0.0523,-0.0729,-0.0739,-0.0809,-0.0789,-0.0845,-0.0848,-0.1117,-0.1119,-0.1093,0,0,0,-0.0413,-0.0408,-0.0471,-0.0462,-0.0539,-0.0619,-0.0527,-0.0727,-0.0747,-0.0788,-0.0845,-0.085,-0.1115,-0.1118,-0.1091,-0.1069,0,0,0,-0.0413,-0.0407,-0.0422,-0.046,-0.0491,-0.0615,-0.0639,-0.0732,-0.0733,-0.0842,-0.085,-0.1114,-0.1117,-0.1088,-0.1066,-0.1033,0,0,0,-0.0389,-0.04,-0.0423,-0.0438,-0.0489,-0.0572,-0.0637,-0.0749,-0.0845,-0.0846,-0.1115,-0.1119,-0.1088,-0.1065,-0.1033,-0.0754,0,0,0,-0.0383,-0.0399,-0.0409,-0.043,-0.0488,-0.0557,-0.0669,-0.0836,-0.0915,-0.106,-0.1067,-0.1092,-0.1066,-0.1033,-0.0951,0,0,0,0,-0.0393,-0.0409,-0.0432,-0.047,-0.0533,-0.0654,-0.0777,-0.0858,-0.1043,-0.0974,-0.1166,-0.1152,-0.1129,-0.0971,-0.1135,-0.1134,-0.1134,-0.1133,-0.1133,-0.0384,-0.0412,-0.0438,-0.0504,-0.0587,-0.0747,-0.0855,-0.1005,-0.1067,-0.1168,-0.1185,-0.122,-0.1061,-0.1256,-0.1256,-0.1256,-0.1256,-0.1256,-0.1256,-0.0369,-0.0374,-0.0452,-0.0515,-0.0653,-0.0806,-0.0984,-0.107,-0.1184,-0.1242,-0.1221,-0.1027,-0.1255,-0.1255,-0.1255,-0.1255,-0.1255,-0.1255,-0.1255,-0.0348,-0.0348,-0.041,-0.0501,-0.0693,-0.0887,-0.0983,-0.1127,-0.1191,-0.1186,-0.1011,-0.1202,-0.1137,-0.1179,-0.1179,-0.1178,-0.1178,-0.1178,-0.1178,-0.0299,-0.0333,-0.0369,-0.0509,-0.0609,-0.0783,-0.0998,-0.0983,-0.1057,-0.0962,-0.1183,-0.1193,-0.1196,-0.1136,-0.1175,-0.1175,-0.1176,-0.1176,-0.1176,-0.026,-0.0281,-0.0293,-0.0355,-0.0496,-0.0584,-0.0793,-0.0765,-0.071,-0.0606,-0.0827,-0.0845,-0.0815,-0.0827,-0.0751,-0.0678,-0.0674,-0.0671,0,-0.0226,-0.0234,-0.0212,-0.0221,-0.0239,-0.0439,-0.0328,-0.0361,-0.0455,-0.0469,-0.0652,-0.0906,-0.0917,-0.0888,-0.0893,-0.0806,0,0,0,-0.0199,-0.0189,-0.0146,-0.0134,-0.0146,-0.0163,-0.03,-0.0284,-0.0483,-0.0322,-0.0582,-0.0605,-0.0815,-0.1166,-0.1163,-0.1166,-0.1068,0,0]},{"header":{"parameterUnit":"m.s-1","parameterCategory":2,"la1":30.2992,"la2":30.254,"lo1":-89.0895,"lo2":-89.0443,"dy":0.0025,"dx":0.0025,"nx":19,"ny":19,"refTime":"2026-05-10T21:00:00:Z","depth":"4","parameterNumber":3,"parameterNumberName":"V-component_of_CURRENTS"},"data":[0,0,0,0.0082,0.0081,0.0032,0.0031,-0.0042,-0.0043,0,0,0,0,0,0,0,0,0,0,0,0.0103,0.0103,0.0082,0.0081,0.0032,0.0031,-0.0042,-0.0043,0,0,0,0,0,0,0,0,0,0,0,0.0103,0.0103,0.0103,0.0081,0.0032,0.0031,-0.0042,-0.0004,0,0,0,0,0,0,0,0,0,0,0.0044,0.006,0.0103,0.0103,0.0081,0.0032,0.0031,-0.0002,-0.0006,-0.0021,0,-0.002,0,-0.0032,-0.0047,-0.0048,0,0,0,0.0073,0.0063,0.0059,0.0103,0.008,0.0032,0.0052,-0.0005,-0.0009,-0.0026,-0.0022,-0.0024,-0.0033,-0.0048,-0.0048,-0.008,-0.008,0,0,0.0076,0.0081,0.0063,0.0057,0.0077,0.0053,0.005,-0.0007,-0.0014,-0.0022,-0.0026,-0.0035,-0.0048,-0.0049,-0.008,-0.008,0,0,0,0.0089,0.0083,0.0081,0.006,0.0052,0.0052,0.0049,-0.0012,-0.001,-0.0027,-0.0036,-0.0049,-0.005,-0.008,-0.008,-0.0071,0,0,0,0.009,0.0092,0.0082,0.0083,0.0054,0.0019,0.0046,-0.0005,-0.0012,-0.0035,-0.0049,-0.005,-0.008,-0.008,-0.0072,-0.01,0,0,0,0.0103,0.0092,0.0092,0.0084,0.0066,0.002,0.0017,-0.0007,-0.0017,-0.0048,-0.005,-0.008,-0.008,-0.0072,-0.01,-0.0101,0,0,0,0.0102,0.008,0.0092,0.0044,0.0067,-0.0008,0.0018,-0.0026,-0.0054,-0.0049,-0.008,-0.008,-0.0073,-0.01,-0.01,-0.0124,0,0,0,0.0069,0.0077,0.0041,0.005,-0.0032,-0.0002,-0.008,-0.0084,-0.0049,-0.0064,-0.0065,-0.0072,-0.01,-0.01,-0.0102,0,0,0,0,0.0025,0.0007,-0.002,-0.0064,-0.0103,-0.0131,-0.0136,-0.0106,-0.0063,-0.0061,-0.0067,-0.0086,-0.0086,-0.0098,-0.0078,-0.0078,-0.0078,-0.0078,-0.0078,-0.0003,-0.0043,-0.0111,-0.0158,-0.0202,-0.0219,-0.0216,-0.0167,-0.0123,-0.007,-0.0073,-0.0065,-0.0076,-0.005,-0.005,-0.005,-0.005,-0.005,-0.005,-0.0065,-0.0114,-0.0165,-0.0235,-0.0269,-0.0308,-0.0271,-0.0205,-0.0131,-0.0077,-0.0075,-0.0082,-0.0049,-0.0049,-0.0049,-0.0049,-0.0049,-0.0049,-0.0049,-0.0085,-0.0116,-0.0154,-0.0256,-0.0306,-0.0319,-0.0314,-0.0228,-0.0131,-0.0114,-0.0094,-0.007,-0.0078,-0.0073,-0.0073,-0.0073,-0.0074,-0.0074,-0.0074,-0.0086,-0.0133,-0.0189,-0.0275,-0.0322,-0.0336,-0.0301,-0.0278,-0.0189,-0.0114,-0.0089,-0.0074,-0.0073,-0.008,-0.0075,-0.0075,-0.0075,-0.0075,-0.0075,-0.0132,-0.0132,-0.0212,-0.0267,-0.0373,-0.0376,-0.0363,-0.0305,-0.0271,-0.0233,-0.0121,-0.0118,-0.0132,-0.013,-0.0139,-0.0152,-0.0153,-0.0153,0,-0.0147,-0.0159,-0.0241,-0.0321,-0.0391,-0.0405,-0.0372,-0.0354,-0.0259,-0.0203,-0.027,-0.0144,-0.014,-0.0158,-0.0157,-0.0169,0,0,0,-0.0183,-0.0188,-0.0243,-0.0313,-0.0394,-0.0368,-0.0352,-0.0314,-0.0253,-0.0287,-0.0161,-0.0159,-0.0242,-0.0081,-0.0095,-0.0094,-0.0106,0,0]}]]